Terminal Aerodrome Forecast
Issued by NWS

Home | Current Version | Previous Version | Text Only | Print | Product List | Glossary On
Versions: 1 2 3 4 5 6 7 8 9 10 11 12 13 14 15 16 17 18 19 20 21 22 23 24 25 26
000
FTUS45 KLKN 280114 AAA
TAFTPH
TAF AMD
KTPH 280114Z 2801/2824 30015G25KT P6SM -SHRASN OVC040
     FM281900 33015G25KT P6SM VCSH SCT020 OVC050=

USA.gov is the U.S. government's official web portal to all federal, state and local government web resources and services.